Tiempo atmosférico en la estación meteorológica de El Pinar, Depósito, Santa Cruz de Tenerife (948 m.)

Fecha
DESCASC
Temp. máxima en grados centígrados (hora)
DESCASC
Temp. mínima en grados centígrados (hora)
DESCASC
Temp. media en grados centígrados
DESCASC
Racha de viento máxima en m/sg (hora)
DESCASC
Velocidad máxima media en intervalos de 10 minutos(hora)
DESCASC
Precipitaciones diarias en mm
DESCASC
Precipitaciones de 00:00 a 06:00 en mm
DESCASC
Precipitaciones de 06:00 a 12:00 en mm
DESCASC
Precipitaciones de 12:00 a 18:00 en mm
DESCASC
Precipitaciones de 18:00 a 24:00 en mm
DESCASC
10-12-2017 16.6 (11:00) 7.3 (05:40) 12 6.39 (01:00) 3.33 (14:40) 0 0 0 0 0
09-12-2017 12.9 (13:00) 7.7 (20:10) 10.3 13.61 (07:50) 6.11 (09:40) 0 0 0 0 0
08-12-2017 11.9 (13:50) 9.5 (22:10) 10.7 12.78 (07:20) 6.67 (11:30) 0 0 0 0 0
07-12-2017 12.4 (13:30) 9.6 (00:00) 11 14.72 (11:10) 7.22 (13:10) 0 0 0 0 0
06-12-2017 12.7 (11:50) 10.2 (00:00) 11.4 15 (13:50) 7.5 (08:40) 0 0 0 0 0
05-12-2017 15.2 (12:50) 9.5 (00:00) 12.3 9.17 (09:20) 5 (09:40) 0 0 0 0 0
04-12-2017 13.3 (15:00) 9.9 (00:00) 11.6 7.22 (03:30) 2.5 (00:10) 0.2 0 0 0.2 0
03-12-2017 14.5 (13:50) 11.5 (00:00) 13 5.56 (21:40) 2.5 (00:30) 74.2 0 16.2 55.2 2.8
02-12-2017 16.8 (12:50) 11.8 (00:00) 14.3 3.61 (13:00) 1.94 (03:40) 1.8 0 0 1.8 0
01-12-2017 18.1 (10:20) 11.3 (00:00) 14.7 5.83 (15:20) 2.5 (15:20) 0.2 0 0 0.2 0
30-11-2017 18.1 (10:20) 11.8 (00:00) 15 7.5 (01:50) 2.78 (01:50) 0 0 0 0 0
29-11-2017 21.6 (12:10) 13.9 (00:00) 17.8 10.28 (09:30) 5 (09:40) 0 0 0 0 0
28-11-2017 21.8 (12:20) 14.2 (00:00) 18 7.78 (05:30) 3.89 (05:30) 0 0 0 0 0
27-11-2017 22.4 (14:30) 14.4 (00:00) 18.4 7.22 (10:50) 3.89 (02:50) 0 0 0 0 0
26-11-2017 17 (11:10) 15.3 (00:00) 16.2 11.39 (01:20) 5.56 (00:10) 0.2 0.2 0 0 0
25-11-2017 16.2 (23:59) 13.4 (00:00) 14.8 11.67 (20:50) 5.83 (23:00) 17.4 0 14.4 0.8 2.2
24-11-2017 16 (13:40) 14 (00:00) 15 9.44 (13:30) 5 (06:10) 1.6 0 1.2 0.4 0
23-11-2017 19.4 (12:10) 11.3 (00:00) 15.3 8.06 (12:50) 3.89 (15:10) 0 0 0 0 0
22-11-2017 21.3 (11:10) 10 (00:00) 15.6 6.39 (10:30) 3.06 (12:00) 0 0 0 0 0
21-11-2017 19.4 (13:40) 10.4 (00:00) 14.9 10 (11:50) 5.28 (11:20) 0 0 0 0 0
20-11-2017 17.1 (15:40) 9 (00:00) 13.1 8.33 (13:30) 3.06 (10:20) 0.2 0.2 0 0 0
19-11-2017 16.3 (10:40) 9.4 (00:00) 12.8 7.5 (18:30) 2.78 (10:30) 2.8 0 0 1.2 1.6
18-11-2017 17.2 (12:10) 9.8 (00:00) 13.5 5.83 (10:40) 2.78 (12:20) 0 0 0 0 0
17-11-2017 18.9 (15:30) 10.8 (00:00) 14.8 4.72 (11:20) 2.78 (11:20) 0 0 0 0 0
16-11-2017 19.7 (13:40) 11.1 (00:00) 15.4 4.44 (14:40) 2.5 (13:30) 0 0 0 0 0
15-11-2017 18.2 (11:30) 10.7 (00:00) 14.5 4.72 (11:00) 2.78 (10:30) 0 0 0 0 0

Gráficas

Temp. máximas Temp. mínimas Temp. medias Precipitaciones Rachas de viento máximas Velocidades máximas media en intervalos de 10 minutos

Datos horarios

Fecha y hora oficial Temperatura (ºC) Velocidad del viento (km/h) Dirección del viento Racha (km/h) Dirección de racha Precipitación (mm) Presión (hPa) Tendencia (hPa) Humedad (%)
2017-12-14 23:00:00 9.9 12 Norte 30 Norte 0 -- -- 72
2017-12-14 22:00:00 10.7 10 Norte 25 Norte 0 -- -- 48
2017-12-14 21:00:00 11.1 10 Noroeste 21 Noroeste 0 -- -- 46
2017-12-14 20:00:00 10.5 9 Norte 19 Noroeste 0 -- -- 52
2017-12-14 19:00:00 10.4 8 Norte 28 Norte 0 -- -- 66
2017-12-14 18:00:00 11.8 11 Norte 27 Norte 0 -- -- 76
2017-12-14 17:00:00 13.6 7 Noroeste 21 Noroeste 0 -- -- 73
2017-12-14 16:00:00 15.7 9 Sur 17 Sur 0 -- -- 70
2017-12-14 15:00:00 16.6 7 Sur 15 Sudeste 0 -- -- 70
2017-12-14 14:00:00 15.9 6 Sur 18 Sudeste 0 -- -- 72
2017-12-14 13:00:00 15 9 Este 18 Este 0 -- -- 79
2017-12-14 12:00:00 14.6 9 Sudeste 18 Este 0 -- -- 78
2017-12-14 11:00:00 14.3 8 Sudeste 17 Este 0 -- -- 77
2017-12-14 10:00:00 13.5 11 Sudeste 19 Sudeste 0 -- -- 79
2017-12-14 09:00:00 10.8 5 Norte 17 Norte 0 -- -- 80
2017-12-14 08:00:00 8.5 10 Norte 20 Norte 0 -- -- 86
2017-12-14 07:00:00 8.9 9 Norte 24 Norte 0 -- -- 89
2017-12-14 06:00:00 9.2 7 Norte 27 Norte 0 -- -- 86
2017-12-14 05:00:00 9.2 8 Norte 27 Norte 0 -- -- 91
2017-12-14 04:00:00 9.1 16 Norte 37 Noroeste 0 -- -- 88
2017-12-14 03:00:00 9.5 9 Norte 36 Este 0 -- -- 88
2017-12-14 02:00:00 10 13 Nordeste 50 Nordeste 0 -- -- 89
2017-12-14 01:00:00 9.3 10 Norte 35 Nordeste 0 -- -- 84
2017-12-14 00:00:00 10 15 Nordeste 50 Norte 0 -- -- 87
2017-12-13 23:00:00 10.3 15 Nordeste 54 Nordeste 0 -- -- 91
2017-12-13 22:00:00 10.8 19 Nordeste 44 Este 0 -- -- 89
2017-12-13 21:00:00 10.6 16 Nordeste 53 Norte 0 -- -- 86
2017-12-13 20:00:00 10.4 21 Nordeste 52 Nordeste 0 -- -- 87
2017-12-13 19:00:00 10.3 15 Nordeste 50 Este 0 -- -- 87
2017-12-13 18:00:00 10.7 18 Nordeste 58 Este 0 -- -- 90
2017-12-13 17:00:00 11.4 16 Nordeste 44 Este 0 -- -- 86
2017-12-13 16:00:00 11.8 16 Nordeste 49 Nordeste 0 -- -- 81
2017-12-13 15:00:00 11.5 15 Norte 50 Noroeste 0 -- -- 87
2017-12-13 14:00:00 11.3 16 Nordeste 42 Nordeste 0 -- -- 90
2017-12-13 13:00:00 12 20 Sudeste 76 Sudeste 0 -- -- 88
2017-12-13 12:00:00 13.2 16 Nordeste 55 Este 0 -- -- 73
2017-12-13 11:00:00 12.1 19 Este 76 Sudeste 0 -- -- 84
2017-12-13 10:00:00 12 19 Este 55 Este 0 -- -- 79
2017-12-13 09:00:00 11.1 15 Norte 52 Norte 0 -- -- 83
2017-12-13 08:00:00 10 22 Nordeste 57 Nordeste 0 -- -- 89
2017-12-13 07:00:00 9.7 14 Nordeste 44 Nordeste 0 -- -- 87
2017-12-13 06:00:00 9.8 13 Norte 44 Nordeste 0.2 -- -- 88
2017-12-13 05:00:00 9.4 12 Norte 37 Nordeste 0 -- -- 90
2017-12-13 04:00:00 9.7 11 Norte 35 Norte 0.2 -- -- 95
2017-12-13 03:00:00 9.4 13 Nordeste 51 Nordeste 0.2 -- -- 92
2017-12-13 02:00:00 9.9 12 Norte 35 Nordeste 0 -- -- 87
2017-12-13 01:00:00 9.8 10 Norte 32 Nordeste 0 -- -- 83
2017-12-13 00:00:00 10 14 Norte 38 Nordeste 0 -- -- 84
2017-12-12 23:00:00 10.1 12 Nordeste 33 Nordeste 0 -- -- 83
2017-12-12 22:00:00 10.2 12 Norte 39 Norte 0 -- -- 87
2017-12-12 21:00:00 10.4 10 Norte 45 Norte 0 -- -- 92
2017-12-12 20:00:00 10.2 14 Norte 43 Norte 0 -- -- 88
2017-12-12 19:00:00 10.3 12 Nordeste 35 Nordeste 0.2 -- -- 93
2017-12-12 18:00:00 10.4 11 Norte 42 Nordeste 0 -- -- 87
2017-12-12 17:00:00 11.4 12 Norte 44 Norte 0.2 -- -- 89
2017-12-12 16:00:00 12.5 12 Norte 37 Este 0 -- -- 79
2017-12-12 15:00:00 13.1 11 Nordeste 35 Nordeste 0 -- -- 79
2017-12-12 14:00:00 14.5 14 Norte 51 Norte 0 -- -- 69
2017-12-12 13:00:00 14.2 12 Nordeste 37 Nordeste 0 -- -- 74
2017-12-12 12:00:00 13.6 15 Nordeste 44 Este 0 -- -- 74
2017-12-12 11:00:00 13.4 10 Nordeste 39 Nordeste 0 -- -- 74
2017-12-12 10:00:00 12.3 16 Nordeste 48 Norte 0 -- -- 80
2017-12-12 09:00:00 10.7 12 Nordeste 39 Norte 0 -- -- 79
2017-12-12 08:00:00 9.5 10 Nordeste 35 Nordeste 0 -- -- 91
2017-12-12 07:00:00 9.1 11 Norte 55 Norte 0 -- -- 89
2017-12-12 06:00:00 9.2 18 Norte 46 Norte 0 -- -- 87
2017-12-12 05:00:00 9.7 12 Nordeste 36 Norte 0 -- -- 94
2017-12-12 04:00:00 10.2 11 Nordeste 33 Este 1.2 -- -- 97
2017-12-12 03:00:00 10 13 Nordeste 39 Norte 0.4 -- -- 93
2017-12-12 02:00:00 10.8 11 Norte 32 Norte 1 -- -- 97
2017-12-12 01:00:00 11.2 11 Norte 36 Norte 0.4 -- -- 95
2017-12-12 00:00:00 11.9 8 Nordeste 33 Norte 1.2 -- -- 97
2017-12-11 23:00:00 12.3 14 Norte 40 Norte 0.8 -- -- 98
2017-12-11 22:00:00 12.7 15 Norte 41 Noroeste 4 -- -- 98
2017-12-11 21:00:00 13.7 6 Norte 45 Noroeste 7.6 -- -- 97
2017-12-11 20:00:00 13.6 13 Noroeste 44 Noroeste 2 -- -- 99
2017-12-11 19:00:00 13 17 Noroeste 46 Noroeste 0.8 -- -- 98
2017-12-11 18:00:00 13 14 Norte 48 Norte 0.2 -- -- 96
2017-12-11 17:00:00 13.2 13 Norte 34 Noroeste 0 -- -- 85
2017-12-11 16:00:00 13.6 9 Norte 34 Norte 0 -- -- 78
2017-12-11 15:00:00 14.5 12 Norte 39 Noroeste 0 -- -- 73
2017-12-11 14:00:00 15.5 9 Norte 29 Noroeste 0 -- -- 70
2017-12-11 13:00:00 14.2 9 Norte 32 Norte 0 -- -- 77
2017-12-11 12:00:00 13.7 8 Noroeste 25 Noroeste 0 -- -- 81
2017-12-11 11:00:00 12.8 6 Este 30 Sudoeste 0 -- -- 87
2017-12-11 10:00:00 13.8 7 Sudeste 24 Este 0 -- -- 79
2017-12-11 09:00:00 12.3 5 Norte 30 Noroeste 0 -- -- 81
2017-12-11 08:00:00 10.4 5 Noroeste 21 Norte 0 -- -- 85
2017-12-11 07:00:00 8.6 5 Norte 10 Norte 0 -- -- 66
2017-12-11 06:00:00 11.2 9 Norte 26 Noroeste 0 -- -- 67
2017-12-11 05:00:00 9.2 6 Norte 14 Noroeste 0 -- -- 80
2017-12-11 04:00:00 7.9 4 Nordeste 9 Noroeste 0 -- -- 70
2017-12-11 03:00:00 7.5 4 Norte 13 Norte 0 -- -- 72
2017-12-11 02:00:00 7.7 6 Norte 10 Norte 0 -- -- 76
2017-12-11 01:00:00 9.5 4 Norte 14 Noroeste 0 -- -- 76
2017-12-11 00:00:00 8.7 4 Norte 10 Nordeste 0 -- -- 57
2017-12-10 23:00:00 9.8 4 Nordeste 13 Este 0 -- -- 50
2017-12-10 22:00:00 10 3 Norte 13 Este 0 -- -- 50
2017-12-10 21:00:00 9.3 5 Oeste 8 Oeste 0 -- -- 76
2017-12-10 20:00:00 10.6 5 Oeste 12 Nordeste 0 -- -- 73
2017-12-10 19:00:00 9.7 5 Nordeste 19 Nordeste 0 -- -- 64
2017-12-10 18:00:00 12.8 3 Noroeste 9 Sudeste 0 -- -- 86
2017-12-10 17:00:00 14 5 Sur 11 Sudeste 0 -- -- 86
2017-12-10 16:00:00 14.3 6 Sudeste 14 Sudeste 0 -- -- 83
2017-12-10 15:00:00 15.2 9 Sudeste 18 Sudeste 0 -- -- 81
2017-12-10 14:00:00 15 9 Sudeste 22 Sudeste 0 -- -- 81
2017-12-10 13:00:00 15.3 9 Este 18 Sudeste 0 -- -- 77
2017-12-10 12:00:00 15.9 9 Este 17 Este 0 -- -- 49
2017-12-10 11:00:00 16.6 10 Este 20 Sudeste 0 -- -- 37
2017-12-10 10:00:00 16.5 8 Este 17 Este 0 -- -- 22
2017-12-10 09:00:00 12 4 Nordeste 9 Nordeste 0 -- -- 34
2017-12-10 08:00:00 7.4 5 Norte 12 Norte 0 -- -- 36
2017-12-10 07:00:00 7.4 6 Norte 12 Norte 0 -- -- 34
2017-12-10 06:00:00 7.5 6 Nordeste 13 Norte 0 -- -- 39
2017-12-10 05:00:00 7.8 6 Norte 14 Norte 0 -- -- 43
2017-12-10 04:00:00 8.1 5 Norte 17 Norte 0 -- -- 49
2017-12-10 03:00:00 8.1 5 Nordeste 11 Este 0 -- -- 63
2017-12-10 02:00:00 10.6 7 Nordeste 20 Nordeste 0 -- -- 84
2017-12-10 01:00:00 11.9 9 Nordeste 23 Este 0 -- -- 34
2017-12-10 00:00:00 9.8 5 Norte 15 Este 0 -- -- 31
2017-12-09 23:00:00 9.8 7 Este 15 Este 0 -- -- 45
2017-12-09 22:00:00 9.1 6 Norte 14 Norte 0 -- -- 34
2017-12-09 21:00:00 8.1 4 Nordeste 11 Nordeste 0 -- -- 47
2017-12-09 20:00:00 8.1 5 Nordeste 15 Este 0 -- -- 68
2017-12-09 19:00:00 10.8 8 Nordeste 21 Nordeste 0 -- -- 92
2017-12-09 18:00:00 11.4 9 Nordeste 26 Sudeste 0 -- -- 88
2017-12-09 17:00:00 11.9 5 Este 34 Sudeste 0 -- -- 88
2017-12-09 16:00:00 12.6 11 Sudeste 34 Sudeste 0 -- -- 85
2017-12-09 15:00:00 12.3 16 Este 32 Este 0 -- -- 90
2017-12-09 14:00:00 12.1 8 Este 32 Sudeste 0 -- -- 89
2017-12-09 13:00:00 12.9 9 Este 34 Sudeste 0 -- -- 86
2017-12-09 12:00:00 11.8 10 Este 27 Sudeste 0 -- -- 91
2017-12-09 11:00:00 11.6 17 Este 36 Este 0 -- -- 83
2017-12-09 10:00:00 11.1 18 Sudeste 39 Sudeste 0 -- -- 91
2017-12-09 09:00:00 10.9 19 Sudeste 48 Sudeste 0 -- -- 91
2017-12-09 08:00:00 10.6 15 Sur 49 Sur 0 -- -- 92
2017-12-09 07:00:00 10.5 14 Sur 36 Sudeste 0 -- -- 87
2017-12-09 06:00:00 10.4 11 Sur 37 Sudeste 0 -- -- 86
2017-12-09 05:00:00 10.2 6 Sur 28 Este 0 -- -- 86
2017-12-09 04:00:00 10.2 5 Nordeste 26 Este 0 -- -- 80
2017-12-09 03:00:00 10.6 8 Norte 32 Norte 0 -- -- 77
2017-12-09 02:00:00 10.3 10 Nordeste 27 Nordeste 0 -- -- 52
2017-12-09 01:00:00 10.6 9 Nordeste 28 Nordeste 0 -- -- 75
2017-12-09 00:00:00 10.5 11 Nordeste 33 Nordeste 0 -- -- 64
2017-12-08 23:00:00 9.9 8 Nordeste 21 Este 0 -- -- 89
2017-12-08 22:00:00 9.6 8 Nordeste 19 Norte 0 -- -- 74
2017-12-08 21:00:00 10 8 Nordeste 26 Este 0 -- -- 87
2017-12-08 20:00:00 10 9 Nordeste 21 Nordeste 0 -- -- 89
2017-12-08 19:00:00 10.4 7 Nordeste 21 Norte 0 -- -- 90
2017-12-08 18:00:00 10.6 6 Nordeste 23 Norte 0 -- -- 86
2017-12-08 17:00:00 11 11 Sudeste 36 Este 0 -- -- 81
2017-12-08 16:00:00 11.6 17 Sudeste 39 Sudeste 0 -- -- 77
2017-12-08 15:00:00 11.9 19 Sudeste 44 Sudeste 0 -- -- 77
2017-12-08 14:00:00 11.6 21 Sudeste 45 Sudeste 0 -- -- 85
2017-12-08 13:00:00 11.5 19 Sudeste 45 Sudeste 0 -- -- 85
2017-12-08 12:00:00 11.2 23 Sudeste 42 Sudeste 0 -- -- 88
2017-12-08 11:00:00 11.1 11 Sudeste 46 Sudeste 0 -- -- 87
2017-12-08 10:00:00 11 17 Sudeste 40 Este 0 -- -- 87
2017-12-08 09:00:00 10.8 21 Sudeste 46 Sudeste 0 -- -- 84
2017-12-08 08:00:00 10.3 21 Sudeste 46 Sudeste 0 -- -- 86
2017-12-08 07:00:00 10.3 12 Sur 31 Sudeste 0 -- -- 85
2017-12-08 06:00:00 10.2 11 Sudeste 41 Sur 0 -- -- 87
2017-12-08 05:00:00 10.4 20 Sudeste 44 Este 0 -- -- 75
2017-12-08 04:00:00 10.3 19 Este 35 Sudeste 0 -- -- 67
2017-12-08 03:00:00 9.8 8 Este 30 Sudeste 0 -- -- 81
2017-12-08 02:00:00 9.7 9 Nordeste 22 Nordeste 0 -- -- 80
2017-12-08 01:00:00 10.1 8 Oeste 29 Noroeste 0 -- -- 84
2017-12-08 00:00:00 10.3 6 Oeste 23 Nordeste 0 -- -- 91
2017-12-07 23:00:00 9.9 6 Nordeste 24 Este 0 -- -- 87
2017-12-07 22:00:00 9.7 9 Nordeste 25 Nordeste 0 -- -- 88
2017-12-07 21:00:00 10 9 Nordeste 28 Nordeste 0 -- -- 89
2017-12-07 20:00:00 10.2 9 Nordeste 22 Este 0 -- -- 87
2017-12-07 19:00:00 10.3 7 Este 23 Nordeste 0 -- -- 86
2017-12-07 18:00:00 10.3 8 Norte 33 Sudeste 0 -- -- 78
2017-12-07 17:00:00 10.9 7 Sudeste 31 Sudeste 0 -- -- 67
2017-12-07 16:00:00 11.4 13 Este 35 Sudeste 0 -- -- 67
2017-12-07 15:00:00 11.9 19 Este 42 Sudeste 0 -- -- 68
2017-12-07 14:00:00 12.3 22 Sudeste 49 Este 0 -- -- 64
2017-12-07 13:00:00 11.8 22 Sudeste 45 Sudeste 0 -- -- 73
2017-12-07 12:00:00 11.4 23 Sudeste 53 Este 0 -- -- 80
2017-12-07 11:00:00 11.1 22 Sudeste 52 Sudeste 0 -- -- 83
2017-12-07 10:00:00 11 21 Sudeste 42 Sudeste 0 -- -- 83
2017-12-07 09:00:00 11 22 Sudeste 47 Sudeste 0 -- -- 84
2017-12-07 08:00:00 10.3 21 Sudeste 44 Sudeste 0 -- -- 84
2017-12-07 07:00:00 10.5 22 Sudeste 51 Sudeste 0 -- -- 83
2017-12-07 06:00:00 10.3 19 Sudeste 45 Sudeste 0 -- -- 89
2017-12-07 05:00:00 10.5 15 Sudeste 44 Sudeste 0 -- -- 85
2017-12-07 04:00:00 10.4 11 Sur 28 Sudeste 0 -- -- 88
2017-12-07 03:00:00 10 8 Sudeste 23 Sudeste 0 -- -- 74
2017-12-07 02:00:00 10.2 5 Este 27 Sudeste 0 -- -- 85
2017-12-07 01:00:00 10.3 9 Sudeste 38 Este 0 -- -- 88
2017-12-07 00:00:00 10.4 10 Sur 50 Sur 0 -- -- 87
2017-12-06 23:00:00 10.6 7 Oeste 32 Sudeste 0 -- -- 86
2017-12-06 22:00:00 10.5 8 Este 35 Este 0 -- -- 86
2017-12-06 21:00:00 10.2 8 Nordeste 29 Este 0 -- -- 84
2017-12-06 20:00:00 10.3 10 Nordeste 34 Este 0 -- -- 82
2017-12-06 19:00:00 10.4 8 Sudeste 28 Este 0 -- -- 81
2017-12-06 18:00:00 10.9 8 Noroeste 35 Este 0 -- -- 77
2017-12-06 17:00:00 11.5 14 Este 36 Este 0 -- -- 74
2017-12-06 16:00:00 12.1 9 Este 37 Sudeste 0 -- -- 71
2017-12-06 15:00:00 12.4 17 Sudeste 41 Sudeste 0 -- -- 66
2017-12-06 14:00:00 12.3 25 Sudeste 54 Sudeste 0 -- -- 59
2017-12-06 13:00:00 12.2 21 Sudeste 45 Sudeste 0 -- -- 67
2017-12-06 12:00:00 12.2 23 Sudeste 47 Sudeste 0 -- -- 64
2017-12-06 11:00:00 12.6 19 Este 46 Este 0 -- -- 65
2017-12-06 10:00:00 12.2 22 Este 49 Este 0 -- -- 66
2017-12-06 09:00:00 11.7 23 Sudeste 48 Este 0 -- -- 68
2017-12-06 08:00:00 10.9 22 Sudeste 48 Sudeste 0 -- -- 66
2017-12-06 07:00:00 11.1 22 Sudeste 45 Sudeste 0 -- -- 68
2017-12-06 06:00:00 11.3 21 Sudeste 49 Sudeste 0 -- -- 79
2017-12-06 05:00:00 11.3 21 Sudeste 46 Sudeste 0 -- -- 75
2017-12-06 04:00:00 11.5 22 Sudeste 43 Sudeste 0 -- -- 71
2017-12-06 03:00:00 11.5 17 Sudeste 38 Sudeste 0 -- -- 62
2017-12-06 02:00:00 11.2 10 Sur 23 Sudeste 0 -- -- 69
2017-12-06 01:00:00 11 5 Noroeste 30 Este 0 -- -- 70
2017-12-06 00:00:00 11.4 8 Sudeste 32 Sudeste 0 -- -- 88
2017-12-05 23:00:00 11.8 11 Sudeste 32 Sudeste 0 -- -- 90
2017-12-05 22:00:00 11.6 5 Noroeste 22 Nordeste 0 -- -- 88
2017-12-05 21:00:00 10 7 Norte 13 Noroeste 0 -- -- 91
2017-12-05 20:00:00 9.9 4 Nordeste 19 Norte 0 -- -- 76
2017-12-05 19:00:00 10.9 5 Nordeste 19 Norte 0 -- -- 60
2017-12-05 18:00:00 12.3 5 Norte 13 Norte 0 -- -- 69
2017-12-05 17:00:00 13.4 6 Nordeste 15 Nordeste 0 -- -- 86
2017-12-05 16:00:00 14.1 8 Sudeste 27 Sudeste 0 -- -- 83
2017-12-05 15:00:00 14.5 13 Este 24 Este 0 -- -- 83
2017-12-05 14:00:00 14.8 13 Este 28 Sudeste 0 -- -- 84
2017-12-05 13:00:00 15.1 13 Este 31 Este 0 -- -- 80
2017-12-05 12:00:00 15.1 14 Este 27 Sudeste 0 -- -- 79
2017-12-05 11:00:00 14.6 15 Este 32 Este 0 -- -- 81
2017-12-05 10:00:00 13.5 18 Sudeste 33 Sudeste 0 -- -- 89
2017-12-05 09:00:00 13.1 13 Sudeste 29 Sudeste 0 -- -- 89
2017-12-05 08:00:00 12.3 6 Sudoeste 19 Noroeste 0 -- -- 88
2017-12-05 07:00:00 12.2 4 Noroeste 22 Norte 0 -- -- 83
2017-12-05 06:00:00 12.2 6 Norte 24 Sudeste 0 -- -- 78
2017-12-05 05:00:00 12.7 6 Nordeste 27 Nordeste 0 -- -- 66
2017-12-05 04:00:00 13.3 12 Este 33 Sudeste 0 -- -- 56
2017-12-05 03:00:00 12.6 6 Nordeste 20 Este 0 -- -- 65
2017-12-05 02:00:00 11.1 5 Nordeste 17 Noroeste 0 -- -- 72
2017-12-05 01:00:00 11.4 4 Nordeste 19 Nordeste 0 -- -- 70
2017-12-05 00:00:00 11.5 7 Nordeste 17 Nordeste 0 -- -- 67
2017-12-04 23:00:00 9.9 5 Norte 14 Nordeste 0 -- -- 79
2017-12-04 22:00:00 10.3 6 Norte 24 Norte 0 -- -- 77
2017-12-04 21:00:00 11.7 7 Nordeste 19 Norte 0 -- -- 71
2017-12-04 20:00:00 10.8 8 Nordeste 18 Nordeste 0 -- -- 84
2017-12-04 19:00:00 10.5 4 Norte 13 Norte 0 -- -- 95
2017-12-04 18:00:00 12.3 4 Nordeste 12 Este 0 -- -- 92
2017-12-04 17:00:00 13.2 8 Este 14 Sudeste 0 -- -- 95
2017-12-04 16:00:00 12.9 5 Este 15 Sudeste 0 -- -- 96
2017-12-04 15:00:00 13.3 8 Este 17 Este 0 -- -- 96
2017-12-04 14:00:00 12.9 5 Este 14 Sudeste 0 -- -- 94
2017-12-04 13:00:00 12.1 6 Este 19 Este 0.2 -- -- 96
2017-12-04 12:00:00 12.3 5 Sudoeste 14 Nordeste 0 -- -- 97
2017-12-04 11:00:00 12.6 7 Sudeste 12 Este 0 -- -- 96
2017-12-04 10:00:00 12.2 4 Este 9 Norte 0 -- -- 97
2017-12-04 09:00:00 11.6 3 Nordeste 16 Este 0 -- -- 95
2017-12-04 08:00:00 11.5 6 Nordeste 19 Nordeste 0 -- -- 99
2017-12-04 07:00:00 11.7 7 Nordeste 16 Nordeste 0 -- -- 100
2017-12-04 06:00:00 11.1 6 Norte 15 Norte 0 -- -- 99
2017-12-04 05:00:00 11.5 4 Nordeste 11 Este 0 -- -- 97
2017-12-04 04:00:00 12.2 5 Nordeste 26 Nordeste 0 -- -- 99
2017-12-04 03:00:00 12 6 Nordeste 15 Este 0 -- -- 99
2017-12-04 02:00:00 11.8 9 Este 22 Sudeste 0 -- -- 98
2017-12-04 01:00:00 11.7 8 Norte 19 Norte 0 -- -- 98
2017-12-04 00:00:00 11.9 8 Nordeste 17 Este 0 -- -- 100
2017-12-03 23:00:00 11.9 4 Nordeste 18 Este 0 -- -- 100
2017-12-03 22:00:00 12.6 7 Este 20 Este 0 -- -- 100
2017-12-03 21:00:00 12.8 5 Nordeste 13 Este 0.2 -- -- 100
2017-12-03 20:00:00 12.8 5 Este 17 Este 0.6 -- -- 100
2017-12-03 19:00:00 13.2 4 Este 12 Nordeste 2 -- -- 100
2017-12-03 18:00:00 13.3 4 Nordeste 10 Nordeste 5.6 -- -- 100
2017-12-03 17:00:00 13.7 6 Sudeste 18 Este 7.6 -- -- 100
2017-12-03 16:00:00 13.8 7 Sudeste 19 Sudeste 14.8 -- -- 100
2017-12-03 15:00:00 14.2 4 Sudeste 15 Este 11.4 -- -- 100
2017-12-03 14:00:00 14.4 4 Este 16 Sudeste 6 -- -- 100
2017-12-03 13:00:00 14.3 4 Norte 17 Sudeste 9.8 -- -- 100
2017-12-03 12:00:00 14.3 4 Sudeste 14 Sudeste 5.8 -- -- 100
2017-12-03 11:00:00 14.2 2 Oeste 14 Noroeste 10.2 -- -- 100
2017-12-03 10:00:00 14.2 3 Sudeste 8 Sudeste 0.2 -- -- 100
2017-12-03 09:00:00 13.7 2 Sudeste 12 Nordeste 0 -- -- 100
2017-12-03 08:00:00 12.6 2 Este 9 Norte 0 -- -- 100
2017-12-03 07:00:00 11.8 5 Norte 9 Norte 0 -- -- 100
2017-12-03 06:00:00 11.5 4 Noroeste 7 Noroeste 0 -- -- 100
2017-12-03 05:00:00 11.6 3 Noroeste 7 Norte 0 -- -- 100
2017-12-03 04:00:00 11.9 4 Norte 7 Norte 0 -- -- 100
2017-12-03 03:00:00 11.8 4 Norte 6 Noroeste 0 -- -- 98
2017-12-03 02:00:00 13.1 0 Calma 13 Norte 0 -- -- 97
2017-12-03 01:00:00 13 5 Norte 19 Noroeste 0 -- -- 99
2017-12-03 00:00:00 13.1 5 Noroeste 13 Norte 0 -- -- 100
2017-12-02 23:00:00 13 4 Noroeste 7 Noroeste 0 -- -- 100
2017-12-02 22:00:00 13.1 3 Noroeste 7 Noroeste 0 -- -- 100
2017-12-02 21:00:00 12.6 3 Norte 8 Noroeste 0 -- -- 100
2017-12-02 20:00:00 13.1 4 Noroeste 9 Noroeste 0 -- -- 99
2017-12-02 19:00:00 13.2 3 Noroeste 7 Noroeste 0 -- -- 97
2017-12-02 18:00:00 15.2 3 Noroeste 6 Noroeste 1.2 -- -- 99
2017-12-02 17:00:00 15.3 5 Sur 8 Sudeste 0 -- -- 100
2017-12-02 16:00:00 15.4 3 Este 10 Este 0 -- -- 100
2017-12-02 15:00:00 15.8 5 Sudeste 9 Sudeste 0.6 -- -- 100
2017-12-02 14:00:00 16.1 5 Sudeste 10 Sudeste 0 -- -- 99
2017-12-02 13:00:00 16.7 6 Sudeste 13 Sudeste 0 -- -- 94
2017-12-02 12:00:00 16.6 6 Sudeste 11 Sur 0 -- -- 95
2017-12-02 11:00:00 15.6 3 Este 8 Sudeste 0 -- -- 98
2017-12-02 10:00:00 15.7 0 Calma 6 Sudeste 0 -- -- 95
2017-12-02 09:00:00 15.5 0 Calma 6 Norte 0 -- -- 94
2017-12-02 08:00:00 11.9 3 Norte 11 Noroeste 0 -- -- 100
2017-12-02 07:00:00 11.8 4 Noroeste 8 Noroeste 0 -- -- 100
2017-12-02 06:00:00 11.8 5 Norte 8 Norte 0 -- -- 99
2017-12-02 05:00:00 12 5 Noroeste 8 Oeste 0 -- -- 99
2017-12-02 04:00:00 12.6 4 Norte 12 Norte 0 -- -- 99
2017-12-02 03:00:00 12.2 4 Noroeste 7 Noroeste 0 -- -- 99
2017-12-02 02:00:00 12.4 4 Norte 8 Noroeste 0 -- -- 97
2017-12-02 01:00:00 13.6 2 Noroeste 9 Noroeste 0 -- -- 96
2017-12-02 00:00:00 13 3 Oeste 10 Oeste 0 -- -- 98
2017-12-01 23:00:00 12.8 3 Este 5 Sur 0 -- -- 95
2017-12-01 22:00:00 13.6 2 Norte 17 Noroeste 0 -- -- 91
2017-12-01 21:00:00 14.6 9 Noroeste 20 Noroeste 0 -- -- 92
2017-12-01 20:00:00 13.9 4 Norte 9 Noroeste 0 -- -- 90
2017-12-01 19:00:00 14.8 4 Noroeste 8 Noroeste 0 -- -- 87
2017-12-01 18:00:00 16.2 3 Noroeste 13 Noroeste 0 -- -- 82
2017-12-01 17:00:00 17.1 8 Sur 13 Sudeste 0 -- -- 91
2017-12-01 16:00:00 17.5 9 Sudeste 21 Noroeste 0 -- -- 86
2017-12-01 15:00:00 16.9 5 Oeste 12 Noroeste 0.2 -- -- 99
2017-12-01 14:00:00 16.4 5 Sudeste 9 Sur 0 -- -- 99
2017-12-01 13:00:00 16.4 4 Este 9 Sudeste 0 -- -- 96
2017-12-01 12:00:00 16.6 6 Sudeste 10 Sudeste 0 -- -- 93
2017-12-01 11:00:00 17.4 8 Sudeste 15 Sudeste 0 -- -- 89
2017-12-01 10:00:00 17.9 6 Sudeste 13 Sudeste 0 -- -- 83
2017-12-01 09:00:00 15.6 3 Sudeste 6 Noroeste 0 -- -- 86
2017-12-01 08:00:00 12 3 Norte 6 Norte 0 -- -- 100
2017-12-01 07:00:00 11.5 4 Norte 7 Norte 0 -- -- 99
2017-12-01 06:00:00 11.4 4 Noroeste 7 Noroeste 0 -- -- 99
2017-12-01 05:00:00 11.3 5 Norte 8 Norte 0 -- -- 98
2017-12-01 04:00:00 11.3 4 Norte 7 Noroeste 0 -- -- 97
2017-12-01 03:00:00 11.7 4 Norte 8 Noroeste 0 -- -- 97
2017-12-01 02:00:00 11.7 5 Noroeste 8 Noroeste 0 -- -- 98
2017-12-01 01:00:00 11.7 5 Norte 8 Noroeste 0 -- -- 97
2017-12-01 00:00:00 11.9 4 Norte 7 Noroeste 0 -- -- 97
2017-11-30 23:00:00 11.8 5 Norte 7 Norte 0 -- -- 97
2017-11-30 22:00:00 11.8 5 Norte 8 Norte 0 -- -- 96
2017-11-30 21:00:00 12.2 4 Noroeste 7 Norte 0 -- -- 94
2017-11-30 20:00:00 13.3 5 Norte 8 Noroeste 0 -- -- 93
2017-11-30 19:00:00 15.5 5 Noroeste 10 Oeste 0 -- -- 94
2017-11-30 18:00:00 16.2 5 Sur 13 Sur 0 -- -- 97
2017-11-30 17:00:00 16.6 7 Sudeste 13 Sur 0 -- -- 97
2017-11-30 16:00:00 16.6 5 Sur 14 Este 0 -- -- 98
2017-11-30 15:00:00 16.8 9 Sudeste 14 Sudeste 0 -- -- 95
2017-11-30 14:00:00 17.5 7 Sudeste 13 Sudeste 0 -- -- 90
2017-11-30 13:00:00 17.8 6 Sudeste 13 Este 0 -- -- 87
2017-11-30 12:00:00 17.4 8 Sudeste 14 Sudeste 0 -- -- 88
2017-11-30 11:00:00 17.1 9 Sudeste 17 Sudeste 0 -- -- 87
2017-11-30 10:00:00 17.6 4 Este 13 Sur 0 -- -- 79
2017-11-30 09:00:00 15.4 3 Oeste 10 Oeste 0 -- -- 79
2017-11-30 08:00:00 12.6 3 Noroeste 6 Noroeste 0 -- -- 91
2017-11-30 07:00:00 13.9 4 Este 23 Noroeste 0 -- -- 85
2017-11-30 06:00:00 14.2 10 Noroeste 22 Oeste 0 -- -- 87
2017-11-30 05:00:00 14.1 10 Noroeste 22 Noroeste 0 -- -- 81
2017-11-30 04:00:00 14.2 8 Oeste 18 Noroeste 0 -- -- 81
2017-11-30 03:00:00 14.2 4 Noroeste 17 Noroeste 0 -- -- 85
2017-11-30 02:00:00 14.8 7 Noroeste 27 Oeste 0 -- -- 79
2017-11-30 01:00:00 13.7 5 Noroeste 13 Oeste 0 -- -- 92
2017-11-30 00:00:00 14.7 0 Calma 19 Noroeste 0 -- -- 91
2017-11-29 23:00:00 15.3 6 Noroeste 18 Oeste 0 -- -- 88
2017-11-29 22:00:00 14 0 Calma 8 Este 0 -- -- 89
2017-11-29 21:00:00 14.3 3 Nordeste 11 Noroeste 0 -- -- 87
2017-11-29 20:00:00 15.3 3 Noroeste 8 Este 0 -- -- 84
2017-11-29 19:00:00 16.1 3 Noroeste 23 Oeste 0 -- -- 81
2017-11-29 18:00:00 16.9 9 Oeste 22 Oeste 0 -- -- 80
2017-11-29 17:00:00 17.7 8 Oeste 23 Oeste 0 -- -- 75
2017-11-29 16:00:00 18.7 10 Oeste 31 Oeste 0 -- -- 71
2017-11-29 15:00:00 20.3 9 Oeste 30 Oeste 0 -- -- 63
2017-11-29 14:00:00 20.5 13 Oeste 30 Noroeste 0 -- -- 61
2017-11-29 13:00:00 21.4 10 Sudoeste 29 Oeste 0 -- -- 55
2017-11-29 12:00:00 21.3 10 Sudoeste 28 Oeste 0 -- -- 55
2017-11-29 11:00:00 20.3 10 Oeste 27 Oeste 0 -- -- 56
2017-11-29 10:00:00 19.4 9 Oeste 37 Oeste 0 -- -- 58
2017-11-29 09:00:00 18.4 15 Oeste 27 Oeste 0 -- -- 59
2017-11-29 08:00:00 16.5 12 Oeste 22 Oeste 0 -- -- 65
2017-11-29 07:00:00 16.5 12 Oeste 27 Oeste 0 -- -- 66
2017-11-29 06:00:00 16.4 14 Oeste 27 Oeste 0 -- -- 68
2017-11-29 05:00:00 16.3 13 Oeste 26 Oeste 0 -- -- 68
2017-11-29 04:00:00 16.5 13 Oeste 28 Sudoeste 0 -- -- 67
2017-11-29 03:00:00 16.6 14 Oeste 28 Oeste 0 -- -- 64
2017-11-29 02:00:00 16.1 9 Oeste 22 Oeste 0 -- -- 61
2017-11-29 01:00:00 16.3 11 Oeste 26 Oeste 0 -- -- 60
2017-11-29 00:00:00 16.3 11 Oeste 23 Oeste 0 -- -- 59
2017-11-28 23:00:00 16.3 8 Oeste 22 Oeste 0 -- -- 63
2017-11-28 22:00:00 15.5 7 Oeste 21 Oeste 0 -- -- 72
2017-11-28 21:00:00 14.6 2 Noroeste 10 Oeste 0 -- -- 73
2017-11-28 20:00:00 14.4 4 Noroeste 10 Noroeste 0 -- -- 73
2017-11-28 19:00:00 15.8 2 Norte 6 Este 0 -- -- 87
2017-11-28 18:00:00 17.3 3 Este 14 Sur 0 -- -- 87
2017-11-28 17:00:00 17.6 3 Sudeste 19 Sur 0 -- -- 84
2017-11-28 16:00:00 18.3 6 Sudeste 16 Sudoeste 0 -- -- 78
2017-11-28 15:00:00 20.3 9 Sur 21 Sur 0 -- -- 72
2017-11-28 14:00:00 20.9 10 Sur 22 Sur 0 -- -- 70
2017-11-28 13:00:00 20.5 9 Sudeste 22 Sur 0 -- -- 72
2017-11-28 12:00:00 21.3 6 Sudoeste 24 Oeste 0 -- -- 55
2017-11-28 11:00:00 20.2 5 Sudoeste 18 Oeste 0 -- -- 59
2017-11-28 10:00:00 19.2 4 Sudoeste 12 Sudoeste 0 -- -- 63
2017-11-28 09:00:00 17.8 8 Oeste 20 Oeste 0 -- -- 65
2017-11-28 08:00:00 17.6 11 Oeste 23 Oeste 0 -- -- 60
2017-11-28 07:00:00 17.5 11 Oeste 27 Oeste 0 -- -- 60
2017-11-28 06:00:00 17.7 12 Oeste 28 Noroeste 0 -- -- 63
2017-11-28 05:00:00 17.3 10 Oeste 22 Oeste 0 -- -- 70
2017-11-28 04:00:00 17.8 14 Oeste 25 Oeste 0 -- -- 56
2017-11-28 03:00:00 17.3 10 Oeste 20 Oeste 0 -- -- 49
2017-11-28 02:00:00 16.7 9 Oeste 18 Oeste 0 -- -- 50
2017-11-28 01:00:00 15.8 9 Oeste 19 Oeste 0 -- -- 57
2017-11-28 00:00:00 15.3 9 Oeste 16 Oeste 0 -- -- 59
2017-11-27 23:00:00 15.4 8 Noroeste 16 Noroeste 0 -- -- 59
2017-11-27 22:00:00 14.7 8 Noroeste 14 Noroeste 0 -- -- 66
2017-11-27 21:00:00 14.4 7 Noroeste 11 Oeste 0 -- -- 70
2017-11-27 20:00:00 14.7 7 Noroeste 15 Oeste 0 -- -- 65
2017-11-27 19:00:00 16.2 8 Noroeste 14 Oeste 0 -- -- 65
2017-11-27 18:00:00 18.9 9 Oeste 20 Oeste 0 -- -- 59
2017-11-27 17:00:00 20.3 7 Sudoeste 21 Sur 0 -- -- 53
2017-11-27 16:00:00 21.4 9 Sudoeste 20 Sudoeste 0 -- -- 51
2017-11-27 15:00:00 22.4 7 Sudoeste 23 Sur 0 -- -- 50
2017-11-27 14:00:00 22.2 8 Sudoeste 24 Sudoeste 0 -- -- 55
2017-11-27 13:00:00 21.7 9 Sudoeste 22 Sudoeste 0 -- -- 57
2017-11-27 12:00:00 21 7 Sudoeste 19 Sudoeste 0 -- -- 71
2017-11-27 11:00:00 20.8 8 Sudoeste 26 Sudoeste 0 -- -- 72
2017-11-27 10:00:00 18.6 10 Oeste 22 Oeste 0 -- -- 81
2017-11-27 09:00:00 17.6 10 Oeste 20 Oeste 0 -- -- 80
2017-11-27 08:00:00 16.7 12 Oeste 21 Oeste 0 -- -- 82
2017-11-27 07:00:00 16.6 13 Oeste 21 Oeste 0 -- -- 83
2017-11-27 06:00:00 16.4 13 Oeste 19 Oeste 0 -- -- 83
2017-11-27 05:00:00 17 11 Oeste 22 Oeste 0 -- -- 83
2017-11-27 04:00:00 16.6 12 Oeste 21 Oeste 0 -- -- 83
2017-11-27 03:00:00 16.3 12 Oeste 24 Oeste 0 -- -- 85
2017-11-27 02:00:00 16.1 10 Oeste 20 Sudoeste 0 -- -- 89
2017-11-27 01:00:00 15.9 11 Oeste 23 Oeste 0 -- -- 92
2017-11-27 00:00:00 15.9 5 Sudoeste 16 Sudoeste 0 -- -- 99
2017-11-26 23:00:00 16.1 5 Sudoeste 14 Sudoeste 0 -- -- 100
2017-11-26 22:00:00 15.8 6 Oeste 18 Oeste 0 -- -- 97
2017-11-26 21:00:00 16 8 Sudoeste 25 Oeste 0 -- -- 97
2017-11-26 20:00:00 16 8 Oeste 23 Oeste 0 -- -- 96
2017-11-26 19:00:00 16.3 9 Oeste 22 Oeste 0 -- -- 96
2017-11-26 18:00:00 16.5 8 Sudoeste 22 Oeste 0 -- -- 97
2017-11-26 17:00:00 16.7 8 Sudoeste 30 Oeste 0 -- -- 98
2017-11-26 16:00:00 16.6 10 Sudoeste 27 Sudoeste 0 -- -- 99
2017-11-26 15:00:00 16.7 10 Sudoeste 31 Sur 0 -- -- 100
2017-11-26 14:00:00 16.7 11 Sudoeste 39 Sur 0 -- -- 100
2017-11-26 13:00:00 16.7 10 Sudoeste 31 Sur 0 -- -- 99
2017-11-26 12:00:00 16.9 11 Sudoeste 37 Sur 0 -- -- 99
2017-11-26 11:00:00 16.7 11 Sudoeste 36 Sur 0 -- -- 98
2017-11-26 10:00:00 16.4 9 Sudoeste 24 Sur 0 -- -- 100
2017-11-26 09:00:00 15.9 9 Sudoeste 25 Sudoeste 0 -- -- 100
2017-11-26 08:00:00 15.4 11 Sudoeste 32 Sudoeste 0 -- -- 100
2017-11-26 07:00:00 15.5 13 Sudoeste 36 Sudoeste 0 -- -- 100
2017-11-26 06:00:00 16 11 Sudoeste 31 Oeste 0 -- -- 100
2017-11-26 05:00:00 16 10 Sudoeste 31 Sur 0.2 -- -- 100
2017-11-26 04:00:00 16 13 Sudoeste 35 Sur 0 -- -- 100
2017-11-26 03:00:00 16.1 12 Sudoeste 36 Sur 0 -- -- 100
2017-11-26 02:00:00 16.2 11 Sudoeste 41 Sudoeste 0 -- -- 100
2017-11-26 01:00:00 16.2 13 Sudoeste 40 Sur 0 -- -- 100
2017-11-26 00:00:00 16.2 18 Sur 32 Sudoeste 0 -- -- 100
2017-11-25 23:00:00 15.6 21 Sur 38 Sur 0 -- -- 100
2017-11-25 22:00:00 15.4 16 Sur 37 Sur 0 -- -- 100
2017-11-25 21:00:00 15.2 16 Sur 42 Sudeste 0 -- -- 100
2017-11-25 20:00:00 15.2 14 Sudeste 41 Sudeste 1.8 -- -- 100
2017-11-25 19:00:00 15.3 14 Sudeste 38 Sudeste 0.4 -- -- 100
2017-11-25 18:00:00 14.8 12 Sudeste 26 Sudeste 0 -- -- 100
2017-11-25 17:00:00 14.5 15 Sur 30 Sudeste 0 -- -- 97
2017-11-25 16:00:00 15.4 12 Sudeste 22 Sudeste 0.2 -- -- 99
2017-11-25 15:00:00 15.3 13 Sur 27 Sur 0.2 -- -- 91
2017-11-25 14:00:00 15.5 11 Sur 27 Sur 0 -- -- 100
2017-11-25 13:00:00 15.5 17 Sur 25 Sur 0.4 -- -- 98
2017-11-25 12:00:00 14.7 5 Oeste 27 Sudeste 1.6 -- -- 98
2017-11-25 11:00:00 14.8 12 Sur 28 Sur 1 -- -- 89
2017-11-25 10:00:00 13.8 10 Oeste 26 Oeste 2 -- -- 93
2017-11-25 09:00:00 13.4 13 Oeste 28 Oeste 1.8 -- -- 93
2017-11-25 08:00:00 13.9 14 Oeste 38 Noroeste 0.8 -- -- 89
2017-11-25 07:00:00 14.5 18 Oeste 39 Oeste 7.2 -- -- 95
2017-11-25 06:00:00 15.9 12 Oeste 28 Oeste 0 -- -- 96
2017-11-25 05:00:00 15.8 14 Oeste 27 Oeste 0 -- -- 97
2017-11-25 04:00:00 15.7 13 Oeste 24 Oeste 0 -- -- 98
2017-11-25 03:00:00 15.7 6 Oeste 13 Oeste 0 -- -- 99
2017-11-25 02:00:00 15.5 6 Oeste 13 Oeste 0 -- -- 97
2017-11-25 01:00:00 15.8 5 Oeste 21 Oeste 0 -- -- 97
2017-11-25 00:00:00 15.8 16 Oeste 28 Noroeste 0 -- -- 96
2017-11-24 23:00:00 16 15 Oeste 29 Oeste 0 -- -- 95
2017-11-24 22:00:00 15.8 13 Oeste 24 Oeste 0 -- -- 94
2017-11-24 21:00:00 15.4 15 Oeste 23 Oeste 0 -- -- 96
2017-11-24 20:00:00 15.7 12 Oeste 23 Oeste 0 -- -- 94
2017-11-24 19:00:00 15.4 9 Oeste 21 Oeste 0 -- -- 94
2017-11-24 18:00:00 14.9 6 Oeste 18 Sur 0 -- -- 91
2017-11-24 17:00:00 15.3 5 Sudoeste 17 Sur 0 -- -- 96
2017-11-24 16:00:00 15.8 5 Sudoeste 18 Sur 0 -- -- 100
2017-11-24 15:00:00 15.7 8 Sudoeste 22 Sur 0 -- -- 100
2017-11-24 14:00:00 15.9 9 Sudoeste 34 Sur 0.4 -- -- 100
2017-11-24 13:00:00 15.5 9 Sur 27 Sur 0 -- -- 100
2017-11-24 12:00:00 15.6 14 Sur 32 Sudeste 0.2 -- -- 99
2017-11-24 11:00:00 15.6 13 Sur 26 Sur 0.2 -- -- 99
2017-11-24 10:00:00 15.8 5 Sudoeste 20 Sur 0.8 -- -- 99
2017-11-24 09:00:00 15.5 7 Sudoeste 15 Sur 0 -- -- 97
2017-11-24 08:00:00 15.1 10 Oeste 28 Oeste 0 -- -- 92
2017-11-24 07:00:00 15.1 17 Oeste 28 Oeste 0 -- -- 92
2017-11-24 06:00:00 14.9 17 Oeste 30 Oeste 0 -- -- 96
2017-11-24 05:00:00 14.5 16 Oeste 26 Oeste 0 -- -- 97
2017-11-24 04:00:00 14.4 9 Oeste 21 Oeste 0 -- -- 78
2017-11-24 03:00:00 14.3 4 Sudoeste 13 Oeste 0 -- -- 80
2017-11-24 02:00:00 14.1 6 Oeste 14 Oeste 0 -- -- 85
2017-11-24 01:00:00 14.3 7 Oeste 15 Oeste 0 -- -- 90
2017-11-24 00:00:00 14.7 4 Sudoeste 13 Noroeste 0 -- -- 78
2017-11-23 23:00:00 13.9 6 Oeste 12 Oeste 0 -- -- 80
2017-11-23 22:00:00 12.4 5 Noroeste 9 Oeste 0 -- -- 85
2017-11-23 21:00:00 13 4 Oeste 16 Noroeste 0 -- -- 80
2017-11-23 20:00:00 14.3 7 Noroeste 22 Noroeste 0 -- -- 72
2017-11-23 19:00:00 14.3 7 Noroeste 16 Noroeste 0 -- -- 76
2017-11-23 18:00:00 16 4 Oeste 17 Oeste 0 -- -- 80
2017-11-23 17:00:00 17.2 9 Oeste 26 Oeste 0 -- -- 66
2017-11-23 16:00:00 17.8 13 Oeste 28 Oeste 0 -- -- 67
2017-11-23 15:00:00 18.3 12 Oeste 27 Oeste 0 -- -- 64
2017-11-23 14:00:00 18.8 10 Oeste 25 Oeste 0 -- -- 63
2017-11-23 13:00:00 18.9 7 Oeste 29 Oeste 0 -- -- 67
2017-11-23 12:00:00 18.9 9 Oeste 23 Sur 0 -- -- 65
2017-11-23 11:00:00 18.5 8 Sudoeste 19 Sur 0 -- -- 72
2017-11-23 10:00:00 16.2 5 Sudoeste 23 Oeste 0 -- -- 86
2017-11-23 09:00:00 15.4 5 Sudoeste 14 Oeste 0 -- -- 89
2017-11-23 08:00:00 12.2 6 Oeste 13 Oeste 0 -- -- 97
2017-11-23 07:00:00 12.2 6 Noroeste 12 Oeste 0 -- -- 96
2017-11-23 06:00:00 12.1 5 Oeste 10 Oeste 0 -- -- 98
2017-11-23 05:00:00 11.9 6 Noroeste 17 Oeste 0 -- -- 92
2017-11-23 04:00:00 13.7 10 Oeste 17 Oeste 0 -- -- 91
2017-11-23 03:00:00 13.8 9 Oeste 16 Oeste 0 -- -- 98
2017-11-23 02:00:00 11.8 8 Oeste 14 Oeste 0 -- -- 95
2017-11-23 01:00:00 11.7 6 Noroeste 8 Noroeste 0 -- -- 92
2017-11-23 00:00:00 11.7 6 Noroeste 9 Noroeste 0 -- -- 92
2017-11-22 23:00:00 11.8 5 Noroeste 8 Noroeste 0 -- -- 89
2017-11-22 22:00:00 12 6 Noroeste 9 Noroeste 0 -- -- 89
2017-11-22 21:00:00 12.3 4 Norte 7 Noroeste 0 -- -- 86
2017-11-22 20:00:00 12.7 5 Norte 8 Norte 0 -- -- 81
2017-11-22 19:00:00 15 5 Noroeste 8 Noroeste 0 -- -- 78
2017-11-22 18:00:00 16.3 0 Calma 10 Sur 0 -- -- 73
2017-11-22 17:00:00 16.8 3 Sudeste 11 Sudeste 0 -- -- 70
2017-11-22 16:00:00 17.1 4 Este 13 Este 0 -- -- 74
2017-11-22 15:00:00 18.4 7 Sudeste 15 Este 0 -- -- 66
2017-11-22 14:00:00 18.8 9 Sudeste 19 Sudeste 0 -- -- 63
2017-11-22 13:00:00 19.1 8 Este 19 Este -- -- -- 58
2017-11-22 12:00:00 19.9 11 Sudeste 22 Sur 0 -- -- 65
2017-11-22 11:00:00 21.1 9 Sudoeste 23 Sur 0 -- -- 45
2017-11-22 10:00:00 19.9 7 Sudoeste 15 Sudoeste 0 -- -- 23
2017-11-22 09:00:00 17.6 7 Oeste 15 Oeste 0 -- -- 21
2017-11-22 08:00:00 11 7 Noroeste 13 Oeste 0 -- -- 26
2017-11-22 07:00:00 10 7 Noroeste 13 Oeste 0 -- -- 29
2017-11-22 06:00:00 11.3 8 Oeste 14 Oeste 0 -- -- 28
2017-11-22 05:00:00 10.4 6 Noroeste 11 Noroeste 0 -- -- 30
2017-11-22 04:00:00 11 5 Noroeste 9 Noroeste 0 -- -- 29
2017-11-22 03:00:00 11.3 6 Noroeste 14 Oeste 0 -- -- 29
2017-11-22 02:00:00 13 8 Oeste 14 Oeste 0 -- -- 26
2017-11-22 01:00:00 10.8 7 Noroeste 13 Oeste 0 -- -- 31
2017-11-22 00:00:00 10.5 5 Noroeste 10 Oeste 0 -- -- 34
2017-11-21 23:00:00 10.7 5 Noroeste 8 Noroeste 0 -- -- 36
2017-11-21 22:00:00 11.5 4 Noroeste 7 Noroeste 0 -- -- 38
2017-11-21 21:00:00 11.8 4 Noroeste 9 Oeste 0 -- -- 42
2017-11-21 20:00:00 12.9 4 Noroeste 8 Oeste 0 -- -- 46
2017-11-21 19:00:00 14.5 4 Oeste 11 Sudeste 0 -- -- 49
2017-11-21 18:00:00 15.6 5 Sudoeste 21 Sur 0 -- -- 50
2017-11-21 17:00:00 16.2 6 Sudoeste 19 Sudeste 0 -- -- 42
2017-11-21 16:00:00 16.8 9 Sur 23 Sur 0 -- -- 45
2017-11-21 15:00:00 17.6 12 Sur 31 Sur 0 -- -- 39
2017-11-21 14:00:00 19.1 15 Sur 34 Sur 0 -- -- 44
2017-11-21 13:00:00 18.2 16 Sur 34 Sudeste 0 -- -- 50
2017-11-21 12:00:00 18.9 17 Sur 36 Sudeste 0 -- -- 50
2017-11-21 11:00:00 16.4 13 Sur 23 Sur 0 -- -- 59
2017-11-21 10:00:00 15.7 14 Sur 27 Sur 0 -- -- 68
2017-11-21 09:00:00 15 4 Sudoeste 24 Sur 0 -- -- 76
2017-11-21 08:00:00 13.9 4 Sur 17 Sudeste 0 -- -- 81
2017-11-21 07:00:00 14.4 5 Sur 22 Sudeste 0 -- -- 72
2017-11-21 06:00:00 14.8 10 Sur 32 Sur 0 -- -- 65
2017-11-21 05:00:00 14.9 8 Sudeste 33 Sur 0 -- -- 59
2017-11-21 04:00:00 15 8 Sudeste 32 Sudeste 0 -- -- 54
2017-11-21 03:00:00 16 16 Sudeste 33 Sudeste 0 -- -- 30
2017-11-21 02:00:00 15.4 10 Sudeste 27 Sudeste 0 -- -- 24
2017-11-21 01:00:00 14.4 6 Sudeste 16 Sudeste 0 -- -- 26
2017-11-21 00:00:00 14.8 6 Sur 20 Sur 0 -- -- 28
2017-11-20 23:00:00 14.8 9 Sur 18 Sudeste 0 -- -- 27
2017-11-20 22:00:00 14.8 7 Sur 20 Sudeste 0 -- -- 31
2017-11-20 21:00:00 14.9 10 Sur 26 Sur 0 -- -- 38
2017-11-20 20:00:00 14.3 10 Sudeste 22 Sur 0 -- -- 42
2017-11-20 19:00:00 14.3 3 Este 15 Sudeste 0 -- -- 94
2017-11-20 18:00:00 14.6 5 Este 23 Este 0 -- -- 89
2017-11-20 17:00:00 15.2 8 Este 15 Este 0 -- -- 87
2017-11-20 16:00:00 16.5 8 Este 15 Este 0 -- -- 72
2017-11-20 15:00:00 16.3 9 Este 24 Sudeste 0 -- -- 59
2017-11-20 14:00:00 16.5 10 Este 30 Sudeste 0 -- -- 77
2017-11-20 13:00:00 16.7 11 Este 22 Sudeste 0 -- -- 71
2017-11-20 12:00:00 16.7 10 Este 27 Sudeste 0 -- -- 67
2017-11-20 11:00:00 16.5 10 Este 29 Sudeste 0 -- -- 68
2017-11-20 10:00:00 15.9 9 Este 20 Sudeste 0 -- -- 73
2017-11-20 09:00:00 14.7 6 Este 14 Este 0 -- -- 77
2017-11-20 08:00:00 9.3 4 Norte 10 Norte 0 -- -- 94
2017-11-20 07:00:00 9.3 4 Nordeste 10 Nordeste 0 -- -- 93
2017-11-20 06:00:00 9.1 4 Norte 22 Norte 0 -- -- 90
2017-11-20 05:00:00 10.2 6 Norte 18 Noroeste 0 -- -- 93
2017-11-20 04:00:00 9.9 6 Norte 16 Noroeste 0 -- -- 97
2017-11-20 03:00:00 10 6 Norte 18 Norte 0 -- -- 99
2017-11-20 02:00:00 9.7 6 Norte 15 Norte 0.2 -- -- 99
2017-11-20 01:00:00 10.1 5 Norte 12 Norte 0 -- -- 98
2017-11-20 00:00:00 10.8 5 Norte 9 Norte 0 -- -- 97
2017-11-19 23:00:00 12.3 3 Nordeste 15 Nordeste 0.6 -- -- 97
2017-11-19 22:00:00 12.9 4 Nordeste 14 Norte 1 -- -- 96
2017-11-19 21:00:00 12.3 5 Nordeste 15 Nordeste 0 -- -- 91
2017-11-19 20:00:00 12 3 Norte 15 Norte 0 -- -- 90
2017-11-19 19:00:00 12.5 5 Nordeste 27 Norte 0 -- -- 88
2017-11-19 18:00:00 13 8 Norte 20 Norte 0 -- -- 88
2017-11-19 17:00:00 14.5 4 Este 13 Nordeste 0 -- -- 93
2017-11-19 16:00:00 13.8 2 Noroeste 17 Noroeste 0 -- -- 98
2017-11-19 15:00:00 13.8 4 Norte 17 Noroeste 1.2 -- -- 98
2017-11-19 14:00:00 14.2 6 Oeste 18 Oeste 0 -- -- 92
2017-11-19 13:00:00 14.8 5 Sudeste 15 Sudeste 0 -- -- 90
2017-11-19 12:00:00 15.1 4 Sudeste 15 Sudeste 0 -- -- 88
2017-11-19 11:00:00 15.5 9 Este 18 Sudeste 0 -- -- 84
2017-11-19 10:00:00 14.7 9 Sudeste 14 Sudeste 0 -- -- 90
2017-11-19 09:00:00 13.7 4 Este 14 Norte 0 -- -- 89
2017-11-19 08:00:00 11 3 Nordeste 8 Noroeste 0 -- -- 97
2017-11-19 07:00:00 9.9 4 Norte 8 Norte 0 -- -- 95
2017-11-19 06:00:00 9.9 4 Norte 10 Norte 0 -- -- 95
2017-11-19 05:00:00 9.7 4 Norte 9 Nordeste 0 -- -- 95
2017-11-19 04:00:00 9.6 3 Norte 9 Norte 0 -- -- 92
2017-11-19 03:00:00 9.8 4 Norte 11 Noroeste 0 -- -- 92
2017-11-19 02:00:00 10.5 4 Norte 11 Norte 0 -- -- 92
2017-11-19 01:00:00 10.6 4 Norte 8 Norte 0 -- -- 90
2017-11-19 00:00:00 11.1 3 Norte 6 Norte 0 -- -- 86
2017-11-18 23:00:00 12.1 2 Norte 11 Nordeste 0 -- -- 89
2017-11-18 22:00:00 11.8 3 Norte 6 Norte 0 -- -- 86
2017-11-18 21:00:00 13.7 0 Calma 11 Sur 0 -- -- 91
2017-11-18 20:00:00 14 3 Nordeste 7 Noroeste 0 -- -- 92
2017-11-18 19:00:00 13.8 2 Norte 8 Este 0 -- -- 90
2017-11-18 18:00:00 14.6 3 Sudeste 8 Sudeste 0 -- -- 91
2017-11-18 17:00:00 15 4 Sudeste 9 Sur 0 -- -- 89
2017-11-18 16:00:00 15.1 6 Sudeste 12 Sudeste 0 -- -- 91
2017-11-18 15:00:00 15.4 7 Sudeste 14 Sudeste 0 -- -- 85
2017-11-18 14:00:00 15.6 6 Sudeste 14 Sudeste 0 -- -- 75
2017-11-18 13:00:00 15.8 5 Este 19 Sudeste 0 -- -- 80
2017-11-18 12:00:00 16.6 6 Sudeste 14 Este 0 -- -- 78
2017-11-18 11:00:00 14.9 5 Este 21 Sudeste 0 -- -- 85
2017-11-18 10:00:00 13.7 3 Nordeste 16 Sudeste 0 -- -- 91
2017-11-18 09:00:00 13.5 4 Nordeste 16 Sudeste 0 -- -- 97
2017-11-18 08:00:00 11.9 3 Norte 5 Norte 0 -- -- 89
2017-11-18 07:00:00 11.2 3 Norte 7 Noroeste 0 -- -- 89
2017-11-18 06:00:00 10.4 4 Norte 8 Norte 0 -- -- 87
2017-11-18 05:00:00 10.9 3 Norte 6 Norte 0 -- -- 83
2017-11-18 04:00:00 10.1 5 Norte 8 Norte 0 -- -- 80
2017-11-18 03:00:00 9.9 5 Norte 7 Norte 0 -- -- 72
2017-11-18 02:00:00 10.7 4 Norte 6 Noroeste 0 -- -- 65
2017-11-18 01:00:00 10.2 3 Norte 6 Norte 0 -- -- 52
2017-11-18 00:00:00 10.8 3 Norte 9 Norte 0 -- -- 47
2017-11-17 23:00:00 11.2 4 Norte 10 Norte 0 -- -- 47
2017-11-17 22:00:00 11.8 5 Norte 9 Norte 0 -- -- 35
2017-11-17 21:00:00 12.3 5 Norte 9 Norte 0 -- -- 33
2017-11-17 20:00:00 13.3 5 Norte 8 Norte 0 -- -- 40
2017-11-17 19:00:00 15.4 3 Norte 8 Norte 0 -- -- 44
2017-11-17 18:00:00 16.8 2 Norte 6 Este 0 -- -- 36
2017-11-17 17:00:00 18 3 Este 10 Sudeste 0 -- -- 34
2017-11-17 16:00:00 18.8 6 Sur 12 Sudeste 0 -- -- 35
2017-11-17 15:00:00 18.4 6 Sudeste 12 Este 0 -- -- 47
2017-11-17 14:00:00 15.8 6 Este 14 Sudeste 0 -- -- 84
2017-11-17 13:00:00 16.5 9 Este 14 Sudeste 0 -- -- 80
2017-11-17 12:00:00 15.4 5 Este 17 Sudeste 0 -- -- 84
2017-11-17 11:00:00 15.4 6 Nordeste 15 Sudeste 0 -- -- 84
2017-11-17 10:00:00 15.4 6 Sudeste 12 Sudeste 0 -- -- 82
2017-11-17 09:00:00 14.5 3 Este 11 Sudeste 0 -- -- 84
2017-11-17 08:00:00 12.2 4 Norte 8 Norte 0 -- -- 49
2017-11-17 07:00:00 12.6 6 Norte 9 Norte 0 -- -- 48
2017-11-17 06:00:00 12.8 6 Norte 9 Norte 0 -- -- 47
2017-11-17 05:00:00 13.2 7 Norte 10 Norte 0 -- -- 47
2017-11-17 04:00:00 13.3 7 Norte 10 Norte 0 -- -- 48
2017-11-17 03:00:00 13.2 6 Norte 9 Norte 0 -- -- 47
2017-11-17 02:00:00 13.1 5 Norte 9 Noroeste 0 -- -- 47
2017-11-17 01:00:00 13.3 5 Norte 9 Norte 0 -- -- 45
2017-11-17 00:00:00 13.8 4 Norte 8 Norte 0 -- -- 42
2017-11-16 23:00:00 13.8 6 Norte 8 Norte 0 -- -- 42
2017-11-16 22:00:00 13.4 5 Norte 8 Noroeste 0 -- -- 45
2017-11-16 21:00:00 13.2 5 Norte 9 Norte 0 -- -- 48
2017-11-16 20:00:00 13.4 5 Norte 9 Norte 0 -- -- 54
2017-11-16 19:00:00 13.2 5 Norte 8 Norte 0 -- -- 61
2017-11-16 18:00:00 15.5 2 Norte 6 Norte 0 -- -- 92
2017-11-16 17:00:00 15.9 2 Sur 8 Sur 0 -- -- 94
2017-11-16 16:00:00 16.1 3 Sudeste 10 Sudeste 0 -- -- 90
2017-11-16 15:00:00 17.6 6 Este 16 Sudeste 0 -- -- 80
2017-11-16 14:00:00 18.8 6 Sur 14 Sudeste 0 -- -- 73
2017-11-16 13:00:00 18.8 6 Sudeste 14 Sudeste 0 -- -- 75
2017-11-16 12:00:00 17.7 7 Sudeste 15 Sudeste 0 -- -- 79
2017-11-16 11:00:00 17.6 6 Sudeste 12 Este 0 -- -- 78
2017-11-16 10:00:00 16.7 6 Sudeste 10 Sudeste 0 -- -- 80
2017-11-16 09:00:00 15.6 4 Sudeste 9 Sudeste 0 -- -- 81
2017-11-16 08:00:00 11.7 0 Calma 5 Norte 0 -- -- 60
2017-11-16 07:00:00 11.8 0 Calma 5 Noroeste 0 -- -- 73
2017-11-16 06:00:00 12.7 0 Calma 6 Noroeste 0 -- -- 55
2017-11-16 05:00:00 13.9 3 Noroeste 8 Oeste 0 -- -- 51
2017-11-16 04:00:00 13.8 0 Calma 8 Norte 0 -- -- 51
2017-11-16 03:00:00 13.4 2 Norte 6 Norte 0 -- -- 50
2017-11-16 02:00:00 12.8 5 Norte 8 Noroeste 0 -- -- 52
2017-11-16 01:00:00 11.9 3 Noroeste 5 Noroeste 0 -- -- 58
2017-11-16 00:00:00 11.9 3 Norte 5 Norte 0 -- -- 61
2017-11-15 23:00:00 11.8 2 Norte 5 Nordeste 0 -- -- 61
2017-11-15 22:00:00 11.2 0 Calma 5 Norte 0 -- -- 63
2017-11-15 21:00:00 10.7 2 Norte 4 Norte 0 -- -- 66
2017-11-15 20:00:00 11.1 3 Noroeste 5 Norte 0 -- -- 78
2017-11-15 19:00:00 13 2 Norte 5 Norte 0 -- -- 87
2017-11-15 18:00:00 14.6 2 Nordeste 6 Sudeste 0 -- -- 89
2017-11-15 17:00:00 14.6 5 Este 10 Sudeste 0 -- -- 92
2017-11-15 16:00:00 15 5 Este 13 Sudeste 0 -- -- 90
2017-11-15 15:00:00 16 5 Este 16 Este 0 -- -- 84
2017-11-15 14:00:00 16.6 9 Sudeste 16 Sudeste 0 -- -- 80
2017-11-15 13:00:00 16.6 6 Sudeste 14 Sudeste 0 -- -- 81
2017-11-15 12:00:00 17.8 8 Sudeste 15 Sudeste 0 -- -- 77
2017-11-15 11:00:00 17.6 9 Sudeste 17 Sudeste 0 -- -- 76
2017-11-15 10:00:00 16.7 8 Sudeste 13 Este 0 -- -- 76
2017-11-15 09:00:00 16.4 5 Sudeste 13 Este 0 -- -- 71
2017-11-15 08:00:00 11.8 2 Nordeste 5 Este 0 -- -- 73
2017-11-15 07:00:00 11.2 0 Calma 5 Norte 0 -- -- 78
2017-11-15 06:00:00 11.5 0 Calma 4 Noroeste 0 -- -- 85
2017-11-15 05:00:00 11.3 2 Noroeste 4 Nordeste 0 -- -- 88
2017-11-15 04:00:00 11.6 2 Norte 7 Norte 0 -- -- 80
2017-11-15 03:00:00 12.3 3 Oeste 8 Oeste 0 -- -- 82
2017-11-15 02:00:00 12.8 0 Calma 6 Este 0 -- -- 72
2017-11-15 01:00:00 14.2 2 Nordeste 10 Norte 0 -- -- 44
2017-11-15 00:00:00 15.8 3 Norte 13 Noroeste 0 -- -- 41